Mooresboro, NC

3:16 PM EST on February 20, 2017 (GMT -0500)
Shelby Municipal

Weather History for KEHO - April, 2014

Change the Weather History Date:

Tuesday, April 1, 2014

  Actual Average (KHKY) Record (KHKY)
Temperature  
Mean Temperature 61 °F -  
Max Temperature 81 °F 68 °F 85 °F (1953)
Min Temperature 41 °F 42 °F 27 °F (1987)
Degree Days  
Heating Degree Days 4    
Growing Degree Days 11 (Base 50)    
Moisture  
Dew Point 33 °F    
Average Humidity 41    
Maximum Humidity 86    
Minimum Humidity 15    
Precipitation  
Precipitation 0.00 in - - ()
Sea Level Pressure  
Sea Level Pressure 30.08 in    
Wind  
Wind Speed 2 mph (South)    
Max Wind Speed 9 mph    
Max Gust Speed -    
Visibility 10 miles    
Events      
Averages and records for this station are not official NWS values.
T = Trace of Precipitation, MM = Missing Value Source: NWS Daily Summary

Daily Weather History Graph

Daily Weather History Graph

Search for Another Location

Airport or City:

Trip Planner

Search our weather history database for the weather conditions in past years. The results will help you decide how hot, cold, wet, or windy it might be!

Date:

Astronomy

Apr. 01, 2014 Rise Set
Actual Time 7:13 AM EDT 7:47 PM EDT
Civil Twilight 6:47 AM EDT 8:13 PM EDT
Nautical Twilight 6:17 AM EDT 8:43 PM EDT
Astronomical Twilight 5:46 AM EDT 9:14 PM EDT
Moon 8:19 AM EDT (4/1) 10:03 PM EDT (4/1)
Length of Visible Light 13h 25m
Length of Day
12h 34m
Waxing Crescent, 4% of the Moon is Illuminated
Apr 1
Waxing Crescent
Apr 7
First Quarter
Apr 15
Full
Apr 22
Last Quarter
Apr 29
New

Hourly Weather History & Observations

Time (EDT) Temp. Windchill Dew Point Humidity Pressure Visibility Wind Dir Wind Speed Gust Speed Precip Events Conditions
12:15 AM 58.1 °F - 24.6 °F 28% 30.11 in 10.0 mi Calm Calm - N/A   Clear
12:35 AM 55.4 °F - 26.2 °F 33% 30.10 in 10.0 mi Calm Calm - N/A   Clear
12:55 AM 53.8 °F - 28.2 °F 37% 30.10 in 10.0 mi Calm Calm - N/A   Clear
1:15 AM 52.7 °F - 31.5 °F 44% 30.09 in 10.0 mi Calm Calm - N/A   Clear
1:35 AM 50.7 °F - 28.9 °F 43% 30.09 in 10.0 mi Calm Calm - N/A   Clear
1:55 AM 49.5 °F - 29.8 °F 47% 30.09 in 10.0 mi Calm Calm - N/A   Clear
2:15 AM 49.5 °F - 30.9 °F 49% 30.09 in 10.0 mi Calm Calm - N/A   Clear
2:35 AM 47.8 °F - 30.7 °F 52% 30.09 in 10.0 mi Calm Calm - N/A   Clear
2:55 AM 47.7 °F - 31.3 °F 53% 30.09 in 10.0 mi Calm Calm - N/A   Clear
3:15 AM 46.6 °F - 33.8 °F 61% 30.09 in 10.0 mi Calm Calm - N/A   Clear
3:35 AM 45.5 °F - 34.0 °F 64% 30.09 in 10.0 mi Calm Calm - N/A   Clear
3:55 AM 46.6 °F - 33.8 °F 61% 30.09 in 10.0 mi Calm Calm - N/A   Clear
4:15 AM 45.1 °F 43.7 °F 34.9 °F 67% 30.09 in 10.0 mi NE 3.5 mph - N/A   Clear
4:35 AM 47.1 °F - 33.3 °F 59% 30.08 in 10.0 mi Calm Calm - N/A   Clear
4:55 AM 42.8 °F - 35.4 °F 75% 30.08 in 10.0 mi Calm Calm - N/A   Clear
5:15 AM 43.3 °F 41.7 °F 35.4 °F 74% 30.08 in 10.0 mi NE 3.5 mph - N/A   Clear
5:35 AM 42.6 °F - 35.2 °F 75% 30.09 in 10.0 mi Calm Calm - N/A   Clear
5:55 AM 44.1 °F 41.5 °F 34.7 °F 70% 30.09 in 10.0 mi NE 4.6 mph - N/A   Clear
6:15 AM 44.6 °F - 34.3 °F 67% 30.09 in 10.0 mi Calm Calm - N/A   Clear
6:35 AM 42.6 °F - 34.7 °F 74% 30.09 in 10.0 mi Calm Calm - N/A   Clear
6:55 AM 42.1 °F - 34.3 °F 74% 30.09 in 10.0 mi Calm Calm - N/A   Clear
7:15 AM 42.8 °F - 34.9 °F 74% 30.09 in 10.0 mi Calm Calm - N/A   Clear
7:35 AM 41.0 °F - 37.2 °F 86% 30.11 in 10.0 mi Calm Calm - N/A   Clear
7:55 AM 42.8 °F 41.1 °F 37.2 °F 81% 30.12 in 10.0 mi WNW 3.5 mph - N/A   Clear
8:15 AM 47.1 °F - 34.7 °F 62% 30.12 in 10.0 mi Calm Calm - N/A   Scattered Clouds
8:35 AM 45.0 °F 43.5 °F 40.1 °F 83% 30.12 in 10.0 mi ENE 3.5 mph - N/A   Scattered Clouds
8:55 AM 47.1 °F - 41.0 °F 79% 30.13 in 10.0 mi Calm Calm - N/A   Scattered Clouds
9:15 AM 48.2 °F - 40.5 °F 75% 30.12 in 10.0 mi Calm Calm - N/A   Mostly Cloudy
9:35 AM 50.5 °F - 40.1 °F 67% 30.13 in 10.0 mi South 6.9 mph - N/A   Mostly Cloudy
9:55 AM 51.4 °F - 40.3 °F 66% 30.14 in 10.0 mi Calm Calm - N/A   Scattered Clouds
10:15 AM 53.1 °F - 39.0 °F 59% 30.14 in 10.0 mi WNW 3.5 mph - N/A   Scattered Clouds
10:40 AM 55.2 °F - 40.1 °F 57% 30.15 in 10.0 mi Calm Calm - N/A   Clear
10:55 AM 57.2 °F - 40.8 °F 54% 30.14 in 10.0 mi Calm Calm - N/A   Clear
11:15 AM 61.0 °F - 40.1 °F 46% 30.14 in 10.0 mi Calm Calm - N/A   Scattered Clouds
11:35 AM 65.3 °F - 37.4 °F 36% 30.13 in 10.0 mi Calm Calm - N/A   Scattered Clouds
11:55 AM 67.6 °F - 37.6 °F 33% 30.12 in 10.0 mi Calm Calm - N/A   Mostly Cloudy
12:15 PM 70.2 °F - 34.2 °F 27% 30.12 in 7.0 mi East 3.5 mph - N/A   Scattered Clouds
12:35 PM 72.3 °F - 30.9 °F 22% 30.12 in 10.0 mi Calm Calm - N/A   Scattered Clouds
12:55 PM 73.8 °F - 28.9 °F 19% 30.11 in 10.0 mi Calm Calm - N/A   Scattered Clouds
1:15 PM 74.3 °F - 26.8 °F 17% 30.10 in 10.0 mi Calm Calm - N/A   Scattered Clouds
1:35 PM 76.1 °F - 27.5 °F 17% 30.09 in 10.0 mi Calm Calm - N/A   Mostly Cloudy
1:55 PM 75.6 °F - 29.1 °F 18% 30.09 in 10.0 mi South 3.5 mph - N/A   Mostly Cloudy
2:15 PM 76.1 °F - 28.2 °F 17% 30.08 in 10.0 mi SW 3.5 mph - N/A   Clear
2:35 PM 75.6 °F - 29.5 °F 18% 30.08 in 10.0 mi South 4.6 mph - N/A   Clear
3:00 PM 77.4 °F - 27.5 °F 16% 30.06 in 10.0 mi South 3.5 mph - N/A   Clear
3:15 PM 77.7 °F - 28.8 °F 17% 30.06 in 10.0 mi WSW 4.6 mph - N/A   Clear
3:35 PM 78.1 °F - 28.4 °F 16% 30.04 in 10.0 mi SSE 4.6 mph - N/A   Clear
3:55 PM 79.3 °F - 27.7 °F 15% 30.04 in 10.0 mi SW 5.8 mph - N/A   Clear
4:15 PM 79.9 °F - 29.3 °F 16% 30.03 in 10.0 mi SSE 3.5 mph - N/A   Clear
4:35 PM 80.8 °F - 30.6 °F 16% 30.02 in 10.0 mi SW 6.9 mph - N/A   Clear
4:55 PM 80.2 °F - 28.4 °F 15% 30.01 in 10.0 mi WSW 4.6 mph - N/A   Clear
5:15 PM 81.1 °F - 31.3 °F 16% 30.01 in 10.0 mi SSW 9.2 mph - N/A   Clear
5:35 PM 80.2 °F - 29.8 °F 16% 30.01 in 10.0 mi SSW 8.1 mph - N/A   Clear
5:55 PM 80.8 °F - 30.2 °F 16% 30.01 in 10.0 mi SSW 8.1 mph - N/A   Clear
6:15 PM 80.2 °F - 32.4 °F 18% 30.01 in 10.0 mi South 6.9 mph - N/A   Clear
6:35 PM 80.2 °F - 32.0 °F 17% 30.01 in 10.0 mi South 3.5 mph - N/A   Clear
6:55 PM 79.5 °F - 34.3 °F 20% 30.02 in 10.0 mi SSW 6.9 mph - N/A   Clear
7:15 PM 79.3 °F - 35.8 °F 21% 30.02 in 10.0 mi SSW 5.8 mph - N/A   Clear
7:35 PM 77.7 °F - 36.3 °F 22% 30.03 in 10.0 mi South 5.8 mph - N/A   Clear
7:55 PM 77.0 °F - 36.5 °F 23% 30.03 in 10.0 mi South 3.5 mph - N/A   Clear
8:15 PM 76.1 °F - 36.5 °F 24% 30.03 in 10.0 mi South 4.6 mph - N/A   Clear
8:35 PM 76.1 °F - 37.0 °F 24% 30.04 in 10.0 mi South 3.5 mph - N/A   Clear
8:55 PM 74.7 °F - 36.5 °F 25% 30.04 in 10.0 mi South 4.6 mph - N/A   Clear
9:15 PM 74.3 °F - 36.7 °F 25% 30.05 in 10.0 mi South 4.6 mph - N/A   Clear
9:35 PM 72.5 °F - 36.0 °F 26% 30.05 in 10.0 mi South 5.8 mph - N/A   Clear
9:55 PM 70.7 °F - 35.8 °F 28% 30.06 in 10.0 mi South 4.6 mph - N/A   Clear
10:15 PM 69.3 °F - 35.6 °F 29% 30.06 in 10.0 mi South 4.6 mph - N/A   Clear
10:35 PM 69.1 °F - 34.3 °F 28% 30.06 in 10.0 mi South 3.5 mph - N/A   Clear
10:55 PM 68.7 °F - 33.6 °F 27% 30.07 in 10.0 mi South 3.5 mph - N/A   Clear
11:15 PM 68.0 °F - 32.5 °F 27% 30.07 in 10.0 mi South 5.8 mph - N/A   Clear
11:35 PM 67.1 °F - 32.4 °F 28% 30.07 in 10.0 mi South 4.6 mph - N/A   Clear
11:55 PM 65.1 °F - 32.2 °F 29% 30.07 in 10.0 mi SSW 5.8 mph - N/A   Clear